contact:dominique.lefevre@mio.osupytheas.fr, maurice.libes@osupytheas.fr, didier.mallarino@osupytheas.fr
Project:EMSO http://www.emso-fr.org/EMSO-France
Depth: 2436.0 m
Title:EMSO Ligure Ouest : Data MII capteur CSTAR
DateTime,Latitude,Longitude,Instrument_Serial,Reference_Counts,Signal_Counts,Corrected_Signal_raw_counts,Calculated_Beam_c_inverse_meters,Internal_thermistor_counts
DateTime,Latitude,Longitude,Instrument_Serial,Reference_Counts,Signal_Counts,Corrected_Signal_raw_counts,Calculated_Beam_c_inverse_meters,Internal_thermistor_counts
2023-04-04T00:01:48,42.805,6.029,CST-1368DR,4333,4670,11445,01.243,551
2023-04-04T00:04:50,42.805,6.029,CST-1368DR,4333,4669,11444,01.243,551
2023-04-04T00:07:51,42.805,6.029,CST-1368DR,4333,4667,11439,01.245,551
2023-04-04T00:10:53,42.805,6.029,CST-1368DR,4333,4673,11453,01.240,551
2023-04-04T00:13:54,42.805,6.029,CST-1368DR,4333,4672,11450,01.241,551
2023-04-04T00:16:56,42.805,6.029,CST-1368DR,4333,4671,11449,01.242,551
2023-04-04T00:19:57,42.805,6.029,CST-1368DR,4333,4671,11447,01.242,551
2023-04-04T00:22:59,42.805,6.029,CST-1368DR,4333,4674,11457,01.239,551
2023-04-04T00:26:01,42.805,6.029,CST-1368DR,4333,4672,11452,01.241,551
2023-04-04T00:29:02,42.805,6.029,CST-1368DR,4333,4673,11452,01.241,552
2023-04-04T00:32:04,42.805,6.029,CST-1368DR,4333,4673,11452,01.241,551
2023-04-04T00:35:05,42.805,6.029,CST-1368DR,4333,4666,11436,01.246,551
2023-04-04T00:38:07,42.805,6.029,CST-1368DR,4333,4671,11448,01.242,551
2023-04-04T00:41:09,42.805,6.029,CST-1368DR,4333,4669,11443,01.244,551
2023-04-04T00:44:10,42.805,6.029,CST-1368DR,4333,4670,11446,01.243,551
2023-04-04T00:47:12,42.805,6.029,CST-1368DR,4333,4668,11442,01.244,551
2023-04-04T00:50:13,42.805,6.029,CST-1368DR,4333,4671,11449,01.242,551
2023-04-04T00:53:15,42.805,6.029,CST-1368DR,4333,4669,11443,01.244,551
2023-04-04T00:56:16,42.805,6.029,CST-1368DR,4333,4670,11445,01.243,551
2023-04-04T00:59:18,42.805,6.029,CST-1368DR,4333,4666,11435,01.246,552
2023-04-04T01:02:20,42.805,6.029,CST-1368DR,4333,4670,11446,01.243,551
2023-04-04T01:05:21,42.805,6.029,CST-1368DR,4333,4670,11445,01.243,551
2023-04-04T01:08:23,42.805,6.029,CST-1368DR,4333,4672,11450,01.241,551
2023-04-04T01:11:24,42.805,6.029,CST-1368DR,4333,4671,11447,01.242,551
2023-04-04T01:14:26,42.805,6.029,CST-1368DR,4333,4670,11446,01.243,551
2023-04-04T01:17:27,42.805,6.029,CST-1368DR,4333,4670,11446,01.243,551
2023-04-04T01:20:29,42.805,6.029,CST-1368DR,4333,4671,11447,01.242,552
2023-04-04T01:23:31,42.805,6.029,CST-1368DR,4333,4668,11441,01.244,551
2023-04-04T01:26:32,42.805,6.029,CST-1368DR,4333,4670,11445,01.243,551
2023-04-04T01:29:34,42.805,6.029,CST-1368DR,4333,4670,11445,01.243,551
2023-04-04T01:32:35,42.805,6.029,CST-1368DR,4333,4670,11445,01.243,551
2023-04-04T01:35:37,42.805,6.029,CST-1368DR,4333,4667,11438,01.245,551
2023-04-04T01:38:39,42.805,6.029,CST-1368DR,4333,4669,11443,01.244,551
2023-04-04T01:41:40,42.805,6.029,CST-1368DR,4333,4670,11446,01.243,551
2023-04-04T01:44:42,42.805,6.029,CST-1368DR,4333,4669,11443,01.244,551
2023-04-04T01:47:43,42.805,6.029,CST-1368DR,4333,4666,11436,01.246,551
2023-04-04T01:50:45,42.805,6.029,CST-1368DR,4333,4670,11446,01.243,551
2023-04-04T01:53:46,42.805,6.029,CST-1368DR,4333,4671,11448,01.242,551
2023-04-04T01:56:48,42.805,6.029,CST-1368DR,4333,4664,11431,01.248,551
2023-04-04T01:59:50,42.805,6.029,CST-1368DR,4333,4669,11444,01.243,551
2023-04-04T02:02:51,42.805,6.029,CST-1368DR,4333,4668,11442,01.244,552
2023-04-04T02:05:53,42.805,6.029,CST-1368DR,4333,4670,11445,01.243,551
2023-04-04T02:08:54,42.805,6.029,CST-1368DR,4333,4672,11450,01.241,551
2023-04-04T02:11:56,42.805,6.029,CST-1368DR,4333,4668,11441,01.244,551
2023-04-04T02:14:57,42.805,6.029,CST-1368DR,4333,4668,11441,01.244,551
2023-04-04T02:17:59,42.805,6.029,CST-1368DR,4333,4669,11443,01.244,551
2023-04-04T02:21:01,42.805,6.029,CST-1368DR,4333,4666,11437,01.246,551
2023-04-04T02:24:02,42.805,6.029,CST-1368DR,4333,4662,11425,01.250,551
2023-04-04T02:27:04,42.805,6.029,CST-1368DR,4333,4667,11438,01.245,551
2023-04-04T02:30:05,42.805,6.029,CST-1368DR,4333,4669,11443,01.244,551
2023-04-04T02:33:07,42.805,6.029,CST-1368DR,4333,4667,11438,01.245,551
2023-04-04T02:36:09,42.805,6.029,CST-1368DR,4333,4669,11444,01.243,551
2023-04-04T02:39:10,42.805,6.029,CST-1368DR,4333,4660,11422,01.251,551
2023-04-04T02:42:12,42.805,6.029,CST-1368DR,4333,4662,11426,01.250,551
2023-04-04T02:45:13,42.805,6.029,CST-1368DR,4332,4643,11382,01.265,551
2023-04-04T02:48:15,42.805,6.029,CST-1368DR,4333,4640,11372,01.269,551
2023-04-04T02:51:16,42.805,6.029,CST-1368DR,4333,4646,11387,01.263,551
2023-04-04T02:54:18,42.805,6.029,CST-1368DR,4332,4642,11381,01.265,551
2023-04-04T02:57:20,42.805,6.029,CST-1368DR,4332,4638,11371,01.269,551
2023-04-04T03:00:21,42.805,6.029,CST-1368DR,4332,4645,11386,01.264,552
2023-04-04T03:03:23,42.805,6.029,CST-1368DR,4332,4629,11348,01.277,551
2023-04-04T03:06:24,42.805,6.029,CST-1368DR,4332,4642,11379,01.266,551
2023-04-04T03:09:26,42.805,6.029,CST-1368DR,4332,4639,11371,01.269,551
2023-04-04T03:12:27,42.805,6.029,CST-1368DR,4332,4629,11348,01.277,551
2023-04-04T03:15:29,42.805,6.029,CST-1368DR,4332,4629,11349,01.277,551
2023-04-04T03:18:31,42.805,6.029,CST-1368DR,4332,4629,11348,01.277,551
2023-04-04T03:21:32,42.805,6.029,CST-1368DR,4332,4621,11328,01.284,551
2023-04-04T03:24:34,42.805,6.029,CST-1368DR,4332,4637,11368,01.270,551
2023-04-04T03:27:35,42.805,6.029,CST-1368DR,4333,4650,11396,01.260,551
2023-04-04T03:30:37,42.805,6.029,CST-1368DR,4332,4630,11351,01.276,551
2023-04-04T03:33:39,42.805,6.029,CST-1368DR,4332,4625,11338,01.281,551
2023-04-04T03:36:40,42.805,6.029,CST-1368DR,4333,4696,11510,01.220,551
2023-04-04T03:39:42,42.805,6.029,CST-1368DR,4333,4696,11509,01.221,551
2023-04-04T03:42:43,42.805,6.029,CST-1368DR,4333,4696,11510,01.220,551
2023-04-04T03:45:45,42.805,6.029,CST-1368DR,4333,4697,11512,01.220,551
2023-04-04T03:48:46,42.805,6.029,CST-1368DR,4333,4691,11498,01.224,551
2023-04-04T03:51:48,42.805,6.029,CST-1368DR,4333,4696,11510,01.220,551
2023-04-04T03:54:50,42.805,6.029,CST-1368DR,4333,4695,11507,01.221,551
2023-04-04T03:57:51,42.805,6.029,CST-1368DR,4333,4698,11514,01.219,551
2023-04-04T04:00:53,42.805,6.029,CST-1368DR,4333,4692,11499,01.224,551
2023-04-04T04:03:54,42.805,6.029,CST-1368DR,4333,4697,11511,01.220,551
2023-04-04T04:06:56,42.805,6.029,CST-1368DR,4333,4699,11517,01.218,551
2023-04-04T04:09:57,42.805,6.029,CST-1368DR,4333,4698,11514,01.219,551
2023-04-04T04:12:59,42.805,6.029,CST-1368DR,4333,4696,11509,01.221,551
2023-04-04T04:16:01,42.805,6.029,CST-1368DR,4333,4694,11504,01.222,551
2023-04-04T04:19:02,42.805,6.029,CST-1368DR,4333,4700,11520,01.217,551
2023-04-04T04:22:04,42.805,6.029,CST-1368DR,4333,4693,11501,01.223,551
2023-04-04T04:25:05,42.805,6.029,CST-1368DR,4333,4683,11477,01.232,551
2023-04-04T04:28:07,42.805,6.029,CST-1368DR,4333,4696,11510,01.220,551
2023-04-04T04:31:09,42.805,6.029,CST-1368DR,4333,4688,11491,01.227,551
2023-04-04T04:34:10,42.805,6.029,CST-1368DR,4333,4693,11503,01.223,551
2023-04-04T04:37:12,42.805,6.029,CST-1368DR,4333,4693,11502,01.223,551
2023-04-04T04:40:13,42.805,6.029,CST-1368DR,4333,4687,11488,01.228,551
2023-04-04T04:43:15,42.805,6.029,CST-1368DR,4333,4688,11491,01.227,551
2023-04-04T04:46:16,42.805,6.029,CST-1368DR,4333,4689,11493,01.226,551
2023-04-04T04:49:18,42.805,6.029,CST-1368DR,4333,4690,11494,01.226,551
2023-04-04T04:52:20,42.805,6.029,CST-1368DR,4333,4688,11489,01.228,551
2023-04-04T04:55:21,42.805,6.029,CST-1368DR,4333,4687,11488,01.228,551
2023-04-04T04:58:23,42.805,6.029,CST-1368DR,4333,4688,11491,01.227,551
2023-04-04T05:01:24,42.805,6.029,CST-1368DR,4333,4685,11482,01.230,551
2023-04-04T05:04:26,42.805,6.029,CST-1368DR,4333,4680,11470,01.234,551
2023-04-04T05:07:27,42.805,6.029,CST-1368DR,4333,4685,11482,01.230,551
2023-04-04T05:10:29,42.805,6.029,CST-1368DR,4333,4685,11483,01.230,551
2023-04-04T05:13:31,42.805,6.029,CST-1368DR,4333,4680,11471,01.234,551
2023-04-04T05:16:32,42.805,6.029,CST-1368DR,4333,4690,11495,01.226,551
2023-04-04T05:19:34,42.805,6.029,CST-1368DR,4333,4694,11504,01.222,551
2023-04-04T05:22:35,42.805,6.029,CST-1368DR,4333,4693,11502,01.223,551
2023-04-04T05:25:37,42.805,6.029,CST-1368DR,4333,4691,11498,01.224,551
2023-04-04T05:28:38,42.805,6.029,CST-1368DR,4333,4691,11498,01.224,551
2023-04-04T05:31:40,42.805,6.029,CST-1368DR,4333,4687,11487,01.228,551
2023-04-04T05:34:42,42.805,6.029,CST-1368DR,4333,4686,11486,01.229,551
2023-04-04T05:37:43,42.805,6.029,CST-1368DR,4333,4691,11498,01.224,551
2023-04-04T05:40:45,42.805,6.029,CST-1368DR,4333,4693,11502,01.223,551
2023-04-04T05:43:46,42.805,6.029,CST-1368DR,4333,4689,11491,01.227,551
2023-04-04T05:46:48,42.805,6.029,CST-1368DR,4333,4687,11487,01.228,551
2023-04-04T05:49:50,42.805,6.029,CST-1368DR,4333,4688,11490,01.227,551
2023-04-04T05:52:51,42.805,6.029,CST-1368DR,4333,4690,11495,01.226,551
2023-04-04T05:55:53,42.805,6.029,CST-1368DR,4333,4681,11472,01.234,551
2023-04-04T05:58:54,42.805,6.029,CST-1368DR,4333,4692,11501,01.223,551
2023-04-04T06:01:56,42.805,6.029,CST-1368DR,4333,4685,11482,01.230,551
2023-04-04T06:04:57,42.805,6.029,CST-1368DR,4333,4686,11484,01.229,551
2023-04-04T06:07:59,42.805,6.029,CST-1368DR,4333,4686,11485,01.229,551
2023-04-04T06:11:01,42.805,6.029,CST-1368DR,4333,4682,11476,01.232,551
2023-04-04T06:14:02,42.805,6.029,CST-1368DR,4333,4682,11476,01.232,551
2023-04-04T06:17:04,42.805,6.029,CST-1368DR,4333,4688,11490,01.227,551
2023-04-04T06:20:05,42.805,6.029,CST-1368DR,4333,4687,11488,01.228,551
2023-04-04T06:23:07,42.805,6.029,CST-1368DR,4333,4688,11490,01.227,551
2023-04-04T06:26:08,42.805,6.029,CST-1368DR,4333,4686,11486,01.229,551
2023-04-04T06:29:10,42.805,6.029,CST-1368DR,4333,4688,11490,01.227,551
2023-04-04T06:32:14,42.805,6.029,CST-1368DR,4333,4687,11487,01.228,551
2023-04-04T06:35:16,42.805,6.029,CST-1368DR,4333,4686,11485,01.229,551
2023-04-04T06:38:17,42.805,6.029,CST-1368DR,4333,4685,11483,01.230,551
2023-04-04T06:41:19,42.805,6.029,CST-1368DR,4333,4686,11486,01.229,551
2023-04-04T06:44:20,42.805,6.029,CST-1368DR,4333,4689,11492,01.227,551
2023-04-04T06:47:22,42.805,6.029,CST-1368DR,4333,4686,11486,01.229,551
2023-04-04T06:50:24,42.805,6.029,CST-1368DR,4333,4686,11486,01.229,551
2023-04-04T06:53:25,42.805,6.029,CST-1368DR,4333,4679,11467,01.235,551
2023-04-04T06:56:27,42.805,6.029,CST-1368DR,4333,4679,11468,01.235,551
2023-04-04T06:59:28,42.805,6.029,CST-1368DR,4333,4686,11484,01.229,551
2023-04-04T07:02:30,42.805,6.029,CST-1368DR,4333,4693,11501,01.223,551
2023-04-04T07:05:31,42.805,6.029,CST-1368DR,4333,4683,11478,01.231,551
2023-04-04T07:08:33,42.805,6.029,CST-1368DR,4333,4684,11480,01.231,551
2023-04-04T07:11:35,42.805,6.029,CST-1368DR,4332,4678,11468,01.235,551
2023-04-04T07:14:36,42.805,6.029,CST-1368DR,4333,4682,11476,01.232,551
2023-04-04T07:17:38,42.805,6.029,CST-1368DR,4332,4677,11465,01.236,551
2023-04-04T07:20:39,42.805,6.029,CST-1368DR,4332,4678,11468,01.235,551
2023-04-04T07:23:41,42.805,6.029,CST-1368DR,4333,4684,11480,01.231,551
2023-04-04T07:26:42,42.805,6.029,CST-1368DR,4333,4680,11471,01.234,551
2023-04-04T07:29:44,42.805,6.029,CST-1368DR,4333,4688,11490,01.227,551
2023-04-04T07:32:46,42.805,6.029,CST-1368DR,4333,4685,11482,01.230,551
2023-04-04T07:35:47,42.805,6.029,CST-1368DR,4333,4685,11482,01.230,551
2023-04-04T07:38:49,42.805,6.029,CST-1368DR,4333,4683,11478,01.231,551
2023-04-04T07:41:50,42.805,6.029,CST-1368DR,4333,4685,11482,01.230,551
2023-04-04T07:44:52,42.805,6.029,CST-1368DR,4333,4686,11485,01.229,552
2023-04-04T07:47:54,42.805,6.029,CST-1368DR,4333,4687,11488,01.228,551
2023-04-04T07:50:55,42.805,6.029,CST-1368DR,4333,4687,11487,01.228,551
2023-04-04T07:53:57,42.805,6.029,CST-1368DR,4333,4683,11477,01.232,551
2023-04-04T07:56:58,42.805,6.029,CST-1368DR,4333,4683,11477,01.232,551
2023-04-04T08:00:00,42.805,6.029,CST-1368DR,4333,4685,11483,01.230,551
2023-04-04T08:03:01,42.805,6.029,CST-1368DR,4333,4685,11483,01.230,552
2023-04-04T08:06:03,42.805,6.029,CST-1368DR,4333,4682,11476,01.232,552
2023-04-04T08:09:05,42.805,6.029,CST-1368DR,4333,4682,11476,01.232,551
2023-04-04T08:12:06,42.805,6.029,CST-1368DR,4333,4686,11485,01.229,551
2023-04-04T08:15:08,42.805,6.029,CST-1368DR,4333,4683,11478,01.231,551
2023-04-04T08:18:09,42.805,6.029,CST-1368DR,4333,4691,11498,01.224,551
2023-04-04T08:21:11,42.805,6.029,CST-1368DR,4332,4685,11485,01.229,551
2023-04-04T08:24:12,42.805,6.029,CST-1368DR,4333,4681,11474,01.233,551
2023-04-04T08:27:14,42.805,6.029,CST-1368DR,4333,4690,11494,01.226,551
2023-04-04T08:30:17,42.805,6.029,CST-1368DR,4333,4686,11485,01.229,551
2023-04-04T08:33:18,42.805,6.029,CST-1368DR,4333,4688,11491,01.227,551
2023-04-04T08:36:20,42.805,6.029,CST-1368DR,4333,4686,11486,01.229,551
2023-04-04T08:39:21,42.805,6.029,CST-1368DR,4333,4690,11495,01.226,551
2023-04-04T08:42:23,42.805,6.029,CST-1368DR,4333,4690,11495,01.226,551
2023-04-04T08:45:25,42.805,6.029,CST-1368DR,4333,4691,11497,01.225,551
2023-04-04T08:48:26,42.805,6.029,CST-1368DR,4332,4685,11484,01.229,551
2023-04-04T08:51:28,42.805,6.029,CST-1368DR,4332,4689,11495,01.226,551
2023-04-04T08:54:29,42.805,6.029,CST-1368DR,4332,4688,11493,01.226,552
2023-04-04T08:57:31,42.805,6.029,CST-1368DR,4333,4688,11491,01.227,551
2023-04-04T09:00:32,42.805,6.029,CST-1368DR,4333,4684,11480,01.231,551
2023-04-04T09:03:34,42.805,6.029,CST-1368DR,4332,4683,11480,01.231,551
2023-04-04T09:06:36,42.805,6.029,CST-1368DR,4333,4685,11483,01.230,551
2023-04-04T09:09:37,42.805,6.029,CST-1368DR,4333,4687,11488,01.228,551
2023-04-04T09:12:39,42.805,6.029,CST-1368DR,4333,4687,11487,01.228,551
2023-04-04T09:15:40,42.805,6.029,CST-1368DR,4333,4692,11499,01.224,551
2023-04-04T09:18:42,42.805,6.029,CST-1368DR,4333,4685,11483,01.230,551
2023-04-04T09:21:43,42.805,6.029,CST-1368DR,4333,4685,11482,01.230,551
2023-04-04T09:24:45,42.805,6.029,CST-1368DR,4333,4689,11493,01.226,551
2023-04-04T09:27:47,42.805,6.029,CST-1368DR,4333,4687,11487,01.228,551
2023-04-04T09:30:48,42.805,6.029,CST-1368DR,4333,4688,11489,01.228,551
2023-04-04T09:33:50,42.805,6.029,CST-1368DR,4333,4688,11490,01.227,551
2023-04-04T09:36:51,42.805,6.029,CST-1368DR,4333,4681,11474,01.233,551
2023-04-04T09:39:53,42.805,6.029,CST-1368DR,4332,4685,11485,01.229,551
2023-04-04T09:42:55,42.805,6.029,CST-1368DR,4333,4686,11484,01.229,551
2023-04-04T09:45:56,42.805,6.029,CST-1368DR,4333,4684,11481,01.230,551
2023-04-04T09:48:58,42.805,6.029,CST-1368DR,4332,4685,11484,01.229,551
2023-04-04T09:51:59,42.805,6.029,CST-1368DR,4333,4688,11490,01.227,551
2023-04-04T09:55:01,42.805,6.029,CST-1368DR,4333,4687,11487,01.228,551
2023-04-04T09:58:02,42.805,6.029,CST-1368DR,4333,4687,11488,01.228,551
2023-04-04T10:01:04,42.805,6.029,CST-1368DR,4333,4685,11483,01.230,551
2023-04-04T10:04:06,42.805,6.029,CST-1368DR,4333,4688,11491,01.227,551
2023-04-04T10:07:07,42.805,6.029,CST-1368DR,4333,4685,11483,01.230,551
2023-04-04T10:10:09,42.805,6.029,CST-1368DR,4333,4684,11481,01.230,551
2023-04-04T10:13:10,42.805,6.029,CST-1368DR,4332,4691,11500,01.224,551
2023-04-04T10:16:12,42.805,6.029,CST-1368DR,4333,4688,11490,01.227,551
2023-04-04T10:19:13,42.805,6.029,CST-1368DR,4333,4678,11466,01.236,551
2023-04-04T10:22:15,42.805,6.029,CST-1368DR,4332,4689,11494,01.226,551
2023-04-04T10:25:17,42.805,6.029,CST-1368DR,4333,4699,11517,01.218,551
2023-04-04T10:28:18,42.805,6.029,CST-1368DR,4332,4690,11497,01.225,551
2023-04-04T10:31:20,42.805,6.029,CST-1368DR,4332,4688,11493,01.226,551
2023-04-04T10:34:21,42.805,6.029,CST-1368DR,4332,4691,11501,01.223,551
2023-04-04T10:37:23,42.805,6.029,CST-1368DR,4332,4691,11500,01.224,551
2023-04-04T10:40:25,42.805,6.029,CST-1368DR,4332,4684,11484,01.229,551
2023-04-04T10:43:26,42.805,6.029,CST-1368DR,4332,4688,11493,01.226,551
2023-04-04T10:46:28,42.805,6.029,CST-1368DR,4332,4683,11480,01.231,551
2023-04-04T10:49:29,42.805,6.029,CST-1368DR,4332,4683,11480,01.231,551
2023-04-04T10:52:31,42.805,6.029,CST-1368DR,4332,4687,11490,01.227,551
2023-04-04T10:55:32,42.805,6.029,CST-1368DR,4332,4691,11500,01.224,551
2023-04-04T10:58:34,42.805,6.029,CST-1368DR,4332,4690,11496,01.225,551
2023-04-04T11:01:36,42.805,6.029,CST-1368DR,4333,4689,11493,01.226,551
2023-04-04T11:04:37,42.805,6.029,CST-1368DR,4333,4689,11492,01.227,551
2023-04-04T11:07:39,42.805,6.029,CST-1368DR,4332,4688,11493,01.226,551
2023-04-04T11:10:40,42.805,6.029,CST-1368DR,4332,4692,11503,01.223,551
2023-04-04T11:13:42,42.805,6.029,CST-1368DR,4332,4693,11504,01.222,551
2023-04-04T11:16:43,42.805,6.029,CST-1368DR,4332,4687,11490,01.227,552
2023-04-04T11:19:45,42.805,6.029,CST-1368DR,4332,4689,11495,01.226,551
2023-04-04T11:22:47,42.805,6.029,CST-1368DR,4332,4689,11495,01.226,551
2023-04-04T11:25:48,42.805,6.029,CST-1368DR,4332,4686,11488,01.228,551
2023-04-04T11:28:50,42.805,6.029,CST-1368DR,4332,4690,11498,01.224,551
2023-04-04T11:31:51,42.805,6.029,CST-1368DR,4332,4691,11500,01.224,551
2023-04-04T11:34:53,42.805,6.029,CST-1368DR,4332,4695,11511,01.220,551
2023-04-04T11:37:55,42.805,6.029,CST-1368DR,4332,4690,11498,01.224,551
2023-04-04T11:40:56,42.805,6.029,CST-1368DR,4332,4690,11496,01.225,551
2023-04-04T11:43:58,42.805,6.029,CST-1368DR,4332,4688,11493,01.226,551
2023-04-04T11:46:59,42.805,6.029,CST-1368DR,4332,4692,11501,01.223,551
2023-04-04T11:50:01,42.805,6.029,CST-1368DR,4332,4691,11500,01.224,551
2023-04-04T11:53:02,42.805,6.029,CST-1368DR,4332,4686,11488,01.228,551
2023-04-04T11:56:04,42.805,6.029,CST-1368DR,4332,4690,11496,01.225,551
2023-04-04T11:59:06,42.805,6.029,CST-1368DR,4332,4690,11497,01.225,551
2023-04-04T12:02:07,42.805,6.029,CST-1368DR,4332,4689,11496,01.225,551
2023-04-04T12:05:09,42.805,6.029,CST-1368DR,4332,4691,11500,01.224,551
2023-04-04T12:08:10,42.805,6.029,CST-1368DR,4332,4691,11500,01.224,551
2023-04-04T12:11:12,42.805,6.029,CST-1368DR,4332,4693,11505,01.222,551
2023-04-04T12:14:13,42.805,6.029,CST-1368DR,4332,4672,11454,01.240,551
2023-04-04T12:17:15,42.805,6.029,CST-1368DR,4332,4675,11460,01.238,551
2023-04-04T12:20:17,42.805,6.029,CST-1368DR,4332,4673,11455,01.239,551
2023-04-04T12:23:18,42.805,6.029,CST-1368DR,4332,4670,11447,01.242,551
2023-04-04T12:26:20,42.805,6.029,CST-1368DR,4332,4666,11438,01.245,551
2023-04-04T12:29:21,42.805,6.029,CST-1368DR,4332,4669,11445,01.243,551
2023-04-04T12:32:25,42.805,6.029,CST-1368DR,4332,4672,11454,01.240,552
2023-04-04T12:35:26,42.805,6.029,CST-1368DR,4332,4656,11415,01.253,551
2023-04-04T12:38:28,42.805,6.029,CST-1368DR,4332,4651,11403,01.258,551
2023-04-04T12:41:29,42.805,6.029,CST-1368DR,4332,4663,11431,01.248,551
2023-04-04T12:44:31,42.805,6.029,CST-1368DR,4332,4672,11454,01.240,551
2023-04-04T12:47:32,42.805,6.029,CST-1368DR,4332,4663,11431,01.248,551
2023-04-04T12:50:34,42.805,6.029,CST-1368DR,4332,4679,11471,01.234,551
2023-04-04T12:53:36,42.805,6.029,CST-1368DR,4332,4691,11501,01.223,551
2023-04-04T12:56:37,42.805,6.029,CST-1368DR,4332,4681,11475,01.233,551
2023-04-04T12:59:39,42.805,6.029,CST-1368DR,4332,4688,11492,01.227,551
2023-04-04T13:02:40,42.805,6.029,CST-1368DR,4332,4679,11470,01.234,551
2023-04-04T13:05:42,42.805,6.029,CST-1368DR,4332,4682,11479,01.231,552
2023-04-04T13:08:43,42.805,6.029,CST-1368DR,4332,4684,11484,01.229,551
2023-04-04T13:11:45,42.805,6.029,CST-1368DR,4332,4684,11482,01.230,551
2023-04-04T13:14:47,42.805,6.029,CST-1368DR,4332,4688,11493,01.226,551
2023-04-04T13:17:48,42.805,6.029,CST-1368DR,4332,4686,11488,01.228,551
2023-04-04T13:20:50,42.805,6.029,CST-1368DR,4332,4680,11474,01.233,551
2023-04-04T13:23:51,42.805,6.029,CST-1368DR,4332,4685,11484,01.229,551
2023-04-04T13:26:53,42.805,6.029,CST-1368DR,4332,4686,11487,01.228,551
2023-04-04T13:29:55,42.805,6.029,CST-1368DR,4332,4688,11493,01.226,551
2023-04-04T13:32:56,42.805,6.029,CST-1368DR,4332,4693,11504,01.222,551
2023-04-04T13:35:58,42.805,6.029,CST-1368DR,4332,4686,11488,01.228,551
2023-04-04T13:38:59,42.805,6.029,CST-1368DR,4332,4689,11495,01.226,551
2023-04-04T13:42:01,42.805,6.029,CST-1368DR,4332,4687,11490,01.227,551
2023-04-04T13:45:02,42.805,6.029,CST-1368DR,4332,4682,11478,01.231,551
2023-04-04T13:48:04,42.805,6.029,CST-1368DR,4332,4688,11493,01.226,551
2023-04-04T13:51:06,42.805,6.029,CST-1368DR,4332,4689,11494,01.226,551
2023-04-04T13:54:07,42.805,6.029,CST-1368DR,4332,4680,11474,01.233,551
2023-04-04T13:57:09,42.805,6.029,CST-1368DR,4332,4686,11487,01.228,551
2023-04-04T14:00:10,42.805,6.029,CST-1368DR,4332,4683,11481,01.230,551
2023-04-04T14:03:12,42.805,6.029,CST-1368DR,4332,4685,11485,01.229,551
2023-04-04T14:06:13,42.805,6.029,CST-1368DR,4332,4689,11496,01.225,551
2023-04-04T14:09:15,42.805,6.029,CST-1368DR,4332,4683,11481,01.230,551
2023-04-04T14:12:17,42.805,6.029,CST-1368DR,4332,4686,11487,01.228,551
2023-04-04T14:15:18,42.805,6.029,CST-1368DR,4332,4682,11477,01.232,551
2023-04-04T14:18:20,42.805,6.029,CST-1368DR,4332,4685,11484,01.229,551
2023-04-04T14:21:21,42.805,6.029,CST-1368DR,4332,4690,11496,01.225,551
2023-04-04T14:24:23,42.805,6.029,CST-1368DR,4332,4684,11483,01.230,551
2023-04-04T14:27:25,42.805,6.029,CST-1368DR,4332,4690,11498,01.224,551
2023-04-04T14:30:27,42.805,6.029,CST-1368DR,4332,4685,11485,01.229,551
2023-04-04T14:33:29,42.805,6.029,CST-1368DR,4332,4686,11488,01.228,551
2023-04-04T14:36:30,42.805,6.029,CST-1368DR,4332,4683,11480,01.231,551
2023-04-04T14:39:32,42.805,6.029,CST-1368DR,4332,4689,11495,01.226,551
2023-04-04T14:42:33,42.805,6.029,CST-1368DR,4332,4689,11495,01.226,551
2023-04-04T14:45:35,42.805,6.029,CST-1368DR,4332,4688,11493,01.226,551
2023-04-04T14:48:37,42.805,6.029,CST-1368DR,4332,4689,11495,01.226,552
2023-04-04T14:51:38,42.805,6.029,CST-1368DR,4332,4690,11496,01.225,551
2023-04-04T14:54:40,42.805,6.029,CST-1368DR,4332,4690,11498,01.224,551
2023-04-04T14:57:41,42.805,6.029,CST-1368DR,4332,4689,11495,01.226,551
2023-04-04T15:00:43,42.805,6.029,CST-1368DR,4332,4686,11488,01.228,551
2023-04-04T15:03:45,42.805,6.029,CST-1368DR,4332,4694,11506,01.222,551
2023-04-04T15:06:46,42.805,6.029,CST-1368DR,4332,4695,11511,01.220,551
2023-04-04T15:09:48,42.805,6.029,CST-1368DR,4332,4690,11496,01.225,551
2023-04-04T15:12:49,42.805,6.029,CST-1368DR,4332,4693,11505,01.222,551
2023-04-04T15:15:51,42.805,6.029,CST-1368DR,4332,4696,11512,01.220,551
2023-04-04T15:18:52,42.805,6.029,CST-1368DR,4332,4690,11498,01.224,551
2023-04-04T15:21:54,42.805,6.029,CST-1368DR,4332,4696,11512,01.220,551
2023-04-04T15:24:56,42.805,6.029,CST-1368DR,4332,4688,11492,01.227,551
2023-04-04T15:27:57,42.805,6.029,CST-1368DR,4332,4686,11488,01.228,551
2023-04-04T15:30:59,42.805,6.029,CST-1368DR,4332,4690,11497,01.225,551
2023-04-04T15:34:00,42.805,6.029,CST-1368DR,4332,4689,11496,01.225,551
2023-04-04T15:37:02,42.805,6.029,CST-1368DR,4332,4687,11490,01.227,551
2023-04-04T15:40:03,42.805,6.029,CST-1368DR,4332,4700,11523,01.216,551
2023-04-04T15:43:05,42.805,6.029,CST-1368DR,4332,4686,11487,01.228,551
2023-04-04T15:46:07,42.805,6.029,CST-1368DR,4332,4692,11501,01.223,551
2023-04-04T15:49:08,42.805,6.029,CST-1368DR,4332,4689,11495,01.226,551
2023-04-04T15:52:10,42.805,6.029,CST-1368DR,4332,4693,11506,01.222,551
2023-04-04T15:55:11,42.805,6.029,CST-1368DR,4332,4697,11515,01.219,551
2023-04-04T15:58:13,42.805,6.029,CST-1368DR,4332,4690,11498,01.224,551
2023-04-04T16:01:14,42.805,6.029,CST-1368DR,4332,4695,11511,01.220,551
2023-04-04T16:04:16,42.805,6.029,CST-1368DR,4332,4684,11482,01.230,551
2023-04-04T16:07:18,42.805,6.029,CST-1368DR,4332,4700,11522,01.216,551
2023-04-04T16:10:19,42.805,6.029,CST-1368DR,4332,4693,11504,01.222,551
2023-04-04T16:13:21,42.805,6.029,CST-1368DR,4332,4702,11527,01.214,551
2023-04-04T16:16:22,42.805,6.029,CST-1368DR,4332,4690,11498,01.224,551
2023-04-04T16:19:24,42.805,6.029,CST-1368DR,4332,4690,11496,01.225,552
2023-04-04T16:22:26,42.805,6.029,CST-1368DR,4332,4695,11511,01.220,551
2023-04-04T16:25:27,42.805,6.029,CST-1368DR,4332,4692,11503,01.223,552
2023-04-04T16:28:29,42.805,6.029,CST-1368DR,4332,4697,11514,01.219,551
2023-04-04T16:31:30,42.805,6.029,CST-1368DR,4332,4692,11503,01.223,551
2023-04-04T16:34:32,42.805,6.029,CST-1368DR,4332,4700,11521,01.216,551
2023-04-04T16:37:33,42.805,6.029,CST-1368DR,4332,4694,11506,01.222,551